| time (UTC) | temp F | wind direction | speed MPH | gust MPH | rain 1hr in | rain 24hr in | rain mn in | humidity % | barometer mb |
| 20260504202226 | 57 | 220 | 0.0 | 0.0 | 0.00 | 0.06 | 0.00 | 89 | 1016.6 |
| 20260504201224 | 57 | 220 | 0.0 | 0.0 | 0.00 | 0.06 | 0.00 | 90 | 1016.6 |
| 20260504200223 | 57 | 220 | 0.0 | 0.0 | 0.00 | 0.06 | 0.00 | 90 | 1016.6 |
| 20260504195150 | 57 | 214 | 0.0 | 0.0 | 0.00 | 0.06 | 0.00 | 90 | 1016.3 |
| 20260504194117 | 57 | 214 | 0.0 | 0.0 | 0.00 | 0.06 | 0.00 | 89 | 1016.3 |
| 20260504193116 | 57 | 214 | 0.0 | 0.0 | 0.00 | 0.06 | 0.00 | 89 | 1016.0 |
| 20260504192114 | 58 | 214 | 0.0 | 0.0 | 0.00 | 0.06 | 0.00 | 89 | 1016.3 |
| 20260504191042 | 58 | 214 | 0.0 | 0.0 | 0.00 | 0.06 | 0.00 | 89 | 1016.0 |
| 20260504190009 | 58 | 214 | 0.0 | 0.0 | 0.00 | 0.06 | 0.00 | 88 | 1016.0 |
| 20260504184936 | 58 | 214 | 0.0 | 0.0 | 0.00 | 0.06 | 0.00 | 88 | 1016.0 |
| 20260504183935 | 59 | 214 | 0.0 | 0.0 | 0.00 | 0.06 | 0.00 | 87 | 1015.6 |
| 20260504182933 | 59 | 214 | 0.0 | 0.0 | 0.00 | 0.06 | 0.00 | 86 | 1015.6 |
| 20260504181931 | 59 | 214 | 0.0 | 0.0 | 0.00 | 0.06 | 0.00 | 85 | 1015.3 |
| 20260504180930 | 59 | 214 | 0.0 | 0.0 | 0.00 | 0.06 | 0.00 | 85 | 1015.3 |
| 20260504175928 | 60 | 214 | 0.0 | 0.0 | 0.00 | 0.06 | 0.00 | 85 | 1015.3 |
| 20260504174927 | 60 | 214 | 0.0 | 0.0 | 0.00 | 0.06 | 0.06 | 85 | 1015.3 |
| 20260504173925 | 60 | 214 | 0.0 | 0.0 | 0.00 | 0.06 | 0.06 | 84 | 1015.3 |
| 20260504172923 | 61 | 214 | 0.0 | 0.0 | 0.00 | 0.06 | 0.06 | 83 | 1015.3 |
| 20260504171921 | 61 | 214 | 0.0 | 0.0 | 0.00 | 0.06 | 0.06 | 82 | 1015.7 |
| 20260504170919 | 61 | 214 | 0.0 | 0.0 | 0.00 | 0.06 | 0.06 | 82 | 1015.7 |
| 20260504150728 | 64 | 185 | 0.0 | 0.0 | 0.00 | 0.06 | 0.06 | 87 | 1015.7 |
| 20260504140648 | 64 | 261 | 0.0 | 0.0 | 0.00 | 0.06 | 0.06 | 88 | 1015.3 |
| 20260504130607 | 66 | 175 | 0.0 | 0.0 | 0.00 | 0.06 | 0.06 | 84 | 1015.3 |
| 20260504110548 | 68 | 333 | 3.0 | 9.0 | 0.00 | 0.06 | 0.06 | 78 | 1014.7 |
| 20260504100436 | 69 | 354 | 5.0 | 10.0 | 0.00 | 0.06 | 0.06 | 77 | 1014.0 |
| 20260504081315 | 68 | 346 | 4.0 | 8.0 | 0.00 | 0.06 | 0.06 | 79 | 1014.0 |
| 20260504080313 | 67 | 352 | 3.0 | 6.0 | 0.00 | 0.06 | 0.06 | 80 | 1014.0 |
| 20260504070305 | 68 | 344 | 2.0 | 6.0 | 0.00 | 0.06 | 0.06 | 81 | 1013.3 |
| 20260504050216 | 67 | 342 | 3.0 | 5.0 | 0.01 | 0.05 | 0.06 | 85 | 1013.6 |
| 20260504045214 | 67 | 0 | 2.0 | 6.0 | 0.01 | 0.05 | 0.06 | 86 | 1013.6 |
| 20260504044213 | 66 | 6 | 2.0 | 6.0 | 0.01 | 0.05 | 0.06 | 87 | 1013.6 |
| 20260504043211 | 66 | 342 | 4.0 | 7.0 | 0.01 | 0.05 | 0.06 | 88 | 1013.6 |
| 20260504042209 | 66 | 340 | 3.0 | 7.0 | 0.00 | 0.04 | 0.05 | 89 | 1014.0 |
| 20260504041208 | 66 | 8 | 4.0 | 7.0 | 0.01 | 0.04 | 0.05 | 91 | 1014.0 |
| 20260504040206 | 66 | 358 | 2.0 | 4.0 | 0.01 | 0.04 | 0.05 | 91 | 1014.0 |
| 20260504035204 | 65 | 9 | 1.0 | 5.0 | 0.02 | 0.04 | 0.04 | 91 | 1014.0 |
| 20260504034202 | 65 | 343 | 2.0 | 5.0 | 0.02 | 0.04 | 0.04 | 91 | 1014.3 |
| 20260504033201 | 65 | 346 | 2.0 | 5.0 | 0.02 | 0.04 | 0.04 | 91 | 1014.3 |
| 20260504032159 | 65 | 335 | 2.0 | 3.0 | 0.03 | 0.04 | 0.04 | 91 | 1014.7 |
| 20260504031158 | 65 | 335 | 1.0 | 3.0 | 0.02 | 0.03 | 0.03 | 91 | 1014.7 |
| 20260504030156 | 66 | 335 | 1.0 | 6.0 | 0.03 | 0.03 | 0.03 | 92 | 1015.0 |
| 20260504025053 | 66 | 335 | 1.0 | 6.0 | 0.02 | 0.02 | 0.02 | 90 | 1015.3 |
| 20260504024051 | 66 | 349 | 1.0 | 4.0 | 0.02 | 0.02 | 0.02 | 91 | 1015.7 |
| 20260504023018 | 66 | 350 | 1.0 | 4.0 | 0.01 | 0.01 | 0.02 | 90 | 1015.7 |
| 20260504022017 | 66 | 297 | 2.0 | 3.0 | 0.01 | 0.01 | 0.02 | 89 | 1016.0 |
| 20260504021016 | 66 | 287 | 0.0 | 1.0 | 0.01 | 0.01 | 0.02 | 89 | 1016.0 |
| 20260504020014 | 66 | 287 | 0.0 | 3.0 | 0.00 | 0.00 | 0.01 | 88 | 1016.4 |
| 20260504015012 | 67 | 287 | 0.0 | 5.0 | 0.00 | 0.00 | 0.01 | 88 | 1016.4 |
| 20260504014011 | 67 | 249 | 0.0 | 5.0 | 0.00 | 0.00 | 0.01 | 87 | 1016.7 |
| 20260504013010 | 67 | 237 | 0.0 | 0.0 | 0.00 | 0.00 | 0.00 | 86 | 1016.7 |
| 20260504011937 | 67 | 237 | 0.0 | 0.0 | 0.00 | 0.00 | 0.00 | 85 | 1017.0 |
| 20260504010936 | 67 | 237 | 0.0 | 0.0 | 0.00 | 0.00 | 0.00 | 85 | 1017.0 |
| 20260504005903 | 67 | 237 | 0.0 | 1.0 | 0.00 | 0.00 | 0.00 | 86 | 1016.7 |
| 20260504004902 | 66 | 237 | 0.0 | 2.0 | 0.00 | 0.00 | 0.00 | 86 | 1016.7 |
| 20260504003900 | 66 | 237 | 1.0 | 2.0 | 0.00 | 0.00 | 0.00 | 86 | 1016.7 |
| 20260504002756 | 66 | 237 | 1.0 | 1.0 | 0.00 | 0.00 | 0.00 | 87 | 1016.7 |
| 20260504001724 | 65 | 237 | 1.0 | 2.0 | 0.00 | 0.00 | 0.00 | 87 | 1016.7 |
| 20260504000722 | 65 | 237 | 0.0 | 2.0 | 0.00 | 0.00 | 0.00 | 87 | 1016.7 |
| 20260503235721 | 66 | 237 | 0.0 | 2.0 | 0.00 | 0.00 | 0.00 | 88 | 1016.7 |
| 20260503234719 | 66 | 237 | 0.0 | 3.0 | 0.00 | 0.00 | 0.00 | 87 | 1017.0 |
| 20260503233646 | 66 | 238 | 0.0 | 3.0 | 0.00 | 0.00 | 0.00 | 87 | 1017.0 |
| 20260503232645 | 67 | 281 | 1.0 | 1.0 | 0.00 | 0.00 | 0.00 | 87 | 1017.4 |
| 20260503231643 | 67 | 288 | 0.0 | 1.0 | 0.00 | 0.00 | 0.00 | 88 | 1017.4 |
| 20260503230641 | 67 | 288 | 0.0 | 1.0 | 0.00 | 0.00 | 0.00 | 87 | 1017.0 |
| 20260503225640 | 67 | 288 | 0.0 | 1.0 | 0.00 | 0.00 | 0.00 | 87 | 1017.0 |
| 20260503224638 | 66 | 288 | 0.0 | 1.0 | 0.00 | 0.00 | 0.00 | 88 | 1016.7 |
| 20260503223637 | 66 | 288 | 0.0 | 1.0 | 0.00 | 0.00 | 0.00 | 88 | 1016.4 |
| 20260503222635 | 66 | 288 | 0.0 | 1.0 | 0.00 | 0.00 | 0.00 | 89 | 1016.4 |
| 20260503221602 | 66 | 288 | 0.0 | 1.0 | 0.00 | 0.00 | 0.00 | 89 | 1016.0 |
| 20260503220600 | 65 | 288 | 0.0 | 3.0 | 0.00 | 0.00 | 0.00 | 89 | 1016.0 |
| 20260503215558 | 65 | 288 | 0.0 | 3.0 | 0.00 | 0.00 | 0.00 | 90 | 1016.0 |
| 20260503214525 | 65 | 287 | 2.0 | 3.0 | 0.00 | 0.00 | 0.00 | 91 | 1016.0 |
| 20260503213524 | 64 | 279 | 2.0 | 3.0 | 0.00 | 0.00 | 0.00 | 92 | 1016.4 |
| 20260503212523 | 64 | 351 | 0.0 | 0.0 | 0.00 | 0.00 | 0.00 | 94 | 1016.0 |
| 20260503211450 | 63 | 350 | 0.0 | 0.0 | 0.00 | 0.00 | 0.00 | 94 | 1016.0 |
| 20260503210449 | 63 | 350 | 0.0 | 0.0 | 0.00 | 0.00 | 0.00 | 94 | 1015.7 |
| 20260503205417 | 62 | 351 | 0.0 | 2.0 | 0.00 | 0.00 | 0.00 | 93 | 1015.7 |
| 20260503204343 | 62 | 350 | 0.0 | 3.0 | 0.00 | 0.00 | 0.00 | 93 | 1015.7 |
| 20260503203310 | 62 | 351 | 1.0 | 4.0 | 0.00 | 0.00 | 0.00 | 93 | 1015.7 |
| 20260503202309 | 62 | 351 | 0.0 | 1.0 | 0.00 | 0.00 | 0.00 | 93 | 1015.3 |